Location: Gro�bocka
(50.8204°N, 11.9702°E)
Time: 07:28:49
(UTC+00:00)

Cosmos 1939 Rocket - Pass Details

Date: 29 October 2020
Orbit: 532 x 584 km, 97.4° (Epoch: 01 December)

Event Time Altitude Azimuth Distance (km) Brightness Sun altitude
Rises 16:55:31 0° 156° (SSE) 2,724 6.2 -10.6°
Reaches altitude 10° 16:57:39 10° 153° (SSE) 1,826 5.3 -10.9°
Maximum altitude 17:01:33 62° 73° (ENE) 617 2.8 -11.5°
Drops below altitude 10° 17:05:26 10° 353° (N) 1,815 5.5 -12.1°
Sets 17:07:33 0° 350° (N) 2,706 6.4 -12.5°
